Location: Derby
(52.9213°N, 1.4761°W)
Time: 17:29:20
(UTC+01:00)

Tiros 1 - Pass Details

Date: 28 May 2025
Orbit: 620 x 651 km, 48.4° (Epoch: 13 June)

Event Time Altitude Azimuth Distance (km) Brightness Sun altitude
Rises 21:31:29 0° 273° (W) 2,906 11.4 -2.5°
Reaches altitude 10° 21:35:18 10° 241° (WSW) 2,001 9.9 -2.9°
Maximum altitude 21:36:52 12° 221° (SW) 1,895 9.6 -3.1°
Drops below altitude 10° 21:38:27 10° 200° (SSW) 2,004 9.5 -3.3°
Sets 21:42:18 0° 168° (SSE) 2,915 10.0 -3.7°
